Weather in Velizg

Russia / Smolensk Oblast     55°36′19″N   31°11′43″E
temp.,
°C
wind,
m/s
gust,
m/s
humid.,
%
clouds,
%
prec.,
mm/h
press.,
hPa
HPBL,
m
6 may, thu
thu600:00+9sse31196100 0.9 1002294
03:00+8sse41394100 1.3 1000383
06:00+8sse5159289 0.1 997508
09:00+10s61495100 0.8 9951229
12:00+6wsw51094100 6.1 9981117
15:00+7wsw51087100 6.8 10011225
18:00+8wsw6128385 1.3 10031433
21:00+5sw41191100 1.6 1005634
7 may, fri
fri700:00+3sw4129015 0.0 1007443
03:00+2ssw312930 0.0 1008359
06:00+2s3129080 0.0 1007338
09:00+5ssw5119295 0.8 1009740
12:00+10sw5865100 0.6 10071527
15:00+11sw5975100 1.7 10071218
18:00+10s4881100 0.6 1006575
21:00+8s5994100 3.6 10051046
8 may, sat
sat800:00+9s61295100 5.8 1001943
03:00+7ssw3997100 5.9 1001392
06:00+7s2699100 0.1 1001303
09:00+9sw4791100 0.8 1000666
12:00+9w4683100 1.3 1001849
15:00+5wnw5996100 1.9 1004911
18:00+4wnw51297100 2.6 10061038
21:00+4wnw4119041 2.9 1009770
9 may, sun
sun900:00+2w4119291 0.0 1011405
03:00+1wnw412945 0.0 1014630
06:00+1wnw412945 0.0 1017479
09:00+6wnw48681 0.0 1019686
12:00+10wnw464259 0.0 10211678
15:00+12w453998 0.0 10221887
18:00+11wsw345098 0.0 10231626
21:00+6s22725 0.0 102534
10 may, mon
mon1000:00+4s39795 0.0 1026162
03:00+3s310795 0.0 1027211
06:00+3s39817 0.0 1028201
09:00+10s4862100 0.0 1029431
12:00+14ssw4652100 0.0 10291033
15:00+16s565014 0.0 10281281
18:00+15s46600 0.0 10281149
21:00+9sse36850 0.0 1028108